User: anonymous   Login
Location: Writing-on-Stone Provincial Park
(49.0825°N, 111.6163°W)
Time: 12:19:07
(UTC-07:00)
Language:

BREEZE-M DEB (TANK) - Orbit

View from above orbital plane
View from above orbital plane
View from above satellite
View from above satellite

Ground track
Ground track

The orbit data is extracted from the following two-line orbital elements,

1 29649U 06056B   15059.45256045  .00000754  00000-0  27633-3 0  9998
2 29649 049.4704 125.4349 5386010 359.2880 041.3546 04.96039157145924
Epoch (UTC): 28 February 2015 10:51:41
Eccentricity: 0.5386010
inclination: 49.4704°
perigee height: 323 km
apogee height: 15967 km
right ascension of ascending node: 125.4349°
argument of perigee: 359.2880°
revolutions per day: 4.96039157
mean anomaly at epoch: 41.3546°
orbit number at epoch: 14592

The dashed part of the orbit path shows where the satellite is in the earth's shadow,  

DLR